Volver al catálogo

ANSER-FLW1

ActivoCienciaPO
NORAD 58019·PAYLOAD·🇪🇸 Spain

Lanzado Oct 9, 2023 desde Guiana Space Centre

Loading…

Próximos Pases (próximas 24 horas)

TLE

ActualizadoSource: Space-Track

Época: Sep 14, 2026, 12:57 UTC

1 58019U 23155D   26257.54013200  .00054031  00000-0  68810-3 0  9995
2 58019  97.5503 351.9639 0002468 114.4950 245.6564 15.59172934162821

Sigue ANSER-FLW1 en tiempo real con AllMySat

Download on the App Store